Date String (YYYY-MM-DD hh:mm:ss) UTC,Instrument flags,Ambient pressure (hPa),Sample flow (lpm),Bypass flow (lpm),Sample temperature (°C),Ambient temperature (°C),ASC tube jacket temperature (°C),LED temperature (°C),Box temperature (°C),Sample RH (%),Span deviation,Mass concentration (μg/m³),Mass concentration (μg/m³),Mass concentration (μg/m³)
DateTimeUTC,F1_M11,P_M11,Q1_M11,Q2_M11,T1_M11,T2_M11,T3_M11,T4_M11,T5_M11,U1_M11,ZSPAN_M11,X0_M11,X2_M11,X1_M11
2022-10-27 12:00:00,,0821.4,5.00,0.00,25.9,24.3,00.0,34.7,27.8,19.1,0000.0,0009.50,0003.13,0002.51
2022-10-27 12:01:00,,0821.4,4.99,0.00,25.9,24.3,00.0,34.7,27.8,19.2,0000.0,0009.55,0003.14,0002.51
2022-10-27 12:02:00,,0821.4,5.00,0.00,25.9,24.3,00.0,34.7,27.8,19.1,0000.0,0009.91,0003.15,0002.52
2022-10-27 12:03:00,,0821.5,5.00,0.00,25.9,24.3,00.0,34.7,27.8,19.1,0000.0,0009.84,0003.16,0002.54
2022-10-27 12:04:00,,0821.5,5.00,0.00,25.9,24.3,00.0,34.7,27.8,19.2,0000.0,0009.12,0003.18,0002.58
2022-10-27 12:05:00,,0821.5,5.00,0.00,25.9,24.3,00.0,34.7,27.8,19.2,0000.0,0008.71,0003.21,0002.61
2022-10-27 12:06:00,,0821.6,4.99,0.00,25.9,24.3,00.0,34.7,27.8,19.3,0000.0,0008.04,0003.24,0002.62
2022-10-27 12:07:00,,0821.5,5.00,0.00,25.9,24.3,00.0,34.7,27.8,19.3,0000.0,0008.70,0003.25,0002.63
2022-10-27 12:08:00,,0821.5,5.02,0.00,25.9,24.3,00.0,34.7,27.8,19.3,0000.0,0007.88,0003.23,0002.65
2022-10-27 12:09:00,,0821.5,5.00,0.00,25.9,24.3,00.0,34.7,27.8,19.3,0000.0,0007.67,0003.24,0002.68
2022-10-27 12:10:00,,0821.6,5.00,0.00,25.9,24.3,00.0,34.7,27.8,19.3,0000.0,0007.53,0003.24,0002.69
2022-10-27 12:11:00,,0821.6,5.00,0.00,25.9,24.3,00.0,34.7,27.8,19.3,0000.0,0007.53,0003.26,0002.71
2022-10-27 12:12:00,,0821.6,5.00,0.00,25.9,24.3,00.0,34.7,27.8,19.3,0000.0,0007.45,0003.27,0002.74
2022-10-27 12:13:00,,0821.6,4.99,0.00,25.9,24.3,00.0,34.7,27.8,19.3,0000.0,0006.86,0003.29,0002.76
2022-10-27 12:14:00,,0821.7,5.00,0.00,25.9,24.3,00.0,34.7,27.8,19.3,0000.0,0006.49,0003.29,0002.76
2022-10-27 12:15:00,,0821.6,5.00,0.00,25.9,24.3,00.0,34.7,27.8,19.3,0000.0,0006.43,0003.27,0002.75
2022-10-27 12:16:00,,0821.7,5.00,0.00,25.9,24.3,00.0,34.7,27.8,19.4,0000.0,0006.21,0003.23,0002.75
2022-10-27 12:17:00,,0821.7,5.00,0.00,25.9,24.3,00.0,34.7,27.8,19.4,0000.0,0006.01,0003.21,0002.77
2022-10-27 12:18:00,,0821.7,4.99,0.00,25.9,24.3,00.0,34.7,27.8,19.4,0000.0,0004.92,0003.22,0002.81
2022-10-27 12:19:00,,0821.7,5.00,0.00,25.9,24.3,00.0,34.7,27.8,19.4,0000.0,0004.82,0003.25,0002.84
2022-10-27 12:20:00,,0821.8,4.99,0.00,25.9,24.3,00.0,34.7,27.8,19.4,0000.0,0005.26,0003.29,0002.88
2022-10-27 12:21:00,,0821.8,5.02,0.00,25.9,24.3,00.0,34.7,27.8,19.5,0000.0,0005.50,0003.33,0002.93
2022-10-27 12:22:00,,0821.8,5.00,0.00,25.9,24.3,00.0,34.7,27.8,19.5,0000.0,0005.56,0003.34,0002.97
2022-10-27 12:23:00,,0821.8,5.00,0.00,25.9,24.3,00.0,34.7,27.8,19.4,0000.0,0005.48,0003.33,0002.98
2022-10-27 12:24:00,,0821.8,5.00,0.00,25.9,24.3,00.0,34.7,27.8,19.2,0000.0,0005.33,0003.27,0002.89
2022-10-27 12:25:00,,0821.8,5.00,0.00,25.9,24.3,00.0,34.7,27.8,19.0,0000.0,0005.02,0003.18,0002.77
2022-10-27 12:26:00,,0821.8,4.99,0.00,25.9,24.3,00.0,34.7,27.8,18.9,0000.0,0004.78,0003.08,0002.63
2022-10-27 12:27:00,,0821.8,5.00,0.00,25.9,24.3,00.0,34.7,27.8,18.7,0000.0,0004.62,0002.95,0002.50
2022-10-27 12:28:00,,0821.8,5.01,0.00,25.9,24.3,00.0,34.7,27.8,18.6,0000.0,0004.44,0002.81,0002.35
2022-10-27 12:29:00,,0821.8,5.00,0.00,25.9,24.3,00.0,34.7,27.8,18.4,0000.0,0004.08,0002.61,0002.19
2022-10-27 12:30:00,,0821.8,5.00,0.00,25.9,24.3,00.0,34.7,27.8,18.3,0000.0,0003.71,0002.38,0002.01
2022-10-27 12:31:00,,0822.0,4.99,0.00,25.8,24.3,00.0,34.7,27.7,18.3,0000.0,0003.08,0002.12,0001.81
2022-10-27 12:32:00,,0822.0,5.00,0.00,25.8,24.3,00.0,34.7,27.8,18.2,0000.0,0002.53,0001.85,0001.61
2022-10-27 12:33:00,,0822.0,5.02,0.00,25.9,24.3,00.0,34.7,27.8,18.2,0000.0,0002.23,0001.64,0001.41
2022-10-27 12:34:00,,0822.0,5.00,0.00,25.8,24.3,00.0,34.7,27.8,18.2,0000.0,0001.92,0001.45,0001.24
2022-10-27 12:35:00,,0821.9,4.99,0.00,25.8,24.3,00.0,34.7,27.7,18.2,0000.0,0001.82,0001.36,0001.16
2022-10-27 12:36:00,,0821.9,5.00,0.00,25.9,24.2,00.0,34.7,27.8,18.2,0000.0,0001.81,0001.33,0001.12
2022-10-27 12:37:00,,0821.9,5.00,0.00,25.8,24.2,00.0,34.7,27.8,18.2,0000.0,0001.82,0001.33,0001.11
2022-10-27 12:38:00,,0821.9,4.99,0.00,25.8,24.2,00.0,34.7,27.8,18.2,0000.0,0001.82,0001.33,0001.10
2022-10-27 12:39:00,,0822.0,5.00,0.00,25.8,24.2,00.0,34.7,27.8,18.2,0000.0,0001.81,0001.30,0001.09
2022-10-27 12:40:00,,0822.0,5.01,0.00,25.8,24.2,00.0,34.7,27.8,18.2,0000.0,0001.80,0001.26,0001.08
2022-10-27 12:41:00,,0822.1,5.00,0.00,25.8,24.2,00.0,34.7,27.8,18.2,0000.0,0002.54,0001.30,0001.07
2022-10-27 12:42:00,,0822.2,5.00,0.00,25.8,24.2,00.0,34.7,27.8,18.2,0000.0,0002.59,0001.32,0001.07
2022-10-27 12:43:00,,0822.1,5.00,0.00,25.8,24.2,00.0,34.7,27.8,18.2,0000.0,0002.60,0001.32,0001.06
2022-10-27 12:44:00,,0822.1,5.00,0.00,25.8,24.2,00.0,34.7,27.8,18.1,0000.0,0002.56,0001.30,0001.05
2022-10-27 12:45:00,,0821.9,5.01,0.00,25.8,24.2,00.0,34.7,27.8,18.1,0000.0,0002.58,0001.30,0001.04
2022-10-27 12:46:00,,0821.9,5.00,0.00,25.8,24.2,00.0,34.7,27.8,18.1,0000.0,0002.54,0001.29,0001.04
2022-10-27 12:47:00,,0822.0,4.99,0.00,25.8,24.2,00.0,34.7,27.8,18.0,0000.0,0002.51,0001.28,0001.04
2022-10-27 12:48:00,,0822.0,4.99,0.00,25.8,24.2,00.0,34.7,27.8,18.0,0000.0,0002.48,0001.25,0001.04
2022-10-27 12:49:00,,0822.1,5.00,0.00,25.8,24.2,00.0,34.7,27.8,18.0,0000.0,0002.45,0001.23,0001.02
2022-10-27 12:50:00,,0822.1,5.02,0.00,25.8,24.2,00.0,34.6,27.7,18.0,0000.0,0002.40,0001.21,0001.02
2022-10-27 12:51:00,,0822.1,5.00,0.00,25.8,24.2,00.0,34.6,27.7,18.0,0000.0,0002.35,0001.23,0001.02
2022-10-27 12:52:00,,0822.1,5.00,0.00,25.8,24.2,00.0,34.6,27.7,17.9,0000.0,0001.93,0001.24,0001.02
2022-10-27 12:53:00,,0822.1,4.99,0.00,25.8,24.2,00.0,34.6,27.7,17.9,0000.0,0001.72,0001.22,0001.02
2022-10-27 12:54:00,,0822.1,4.99,0.00,25.8,24.2,00.0,34.6,27.7,17.9,0000.0,0001.76,0001.22,0001.03
2022-10-27 12:55:00,,0822.1,4.99,0.00,25.8,24.2,00.0,34.6,27.7,17.9,0000.0,0001.78,0001.23,0001.02
2022-10-27 12:56:00,,0822.1,4.99,0.00,25.8,24.2,00.0,34.6,27.7,17.9,0000.0,0001.80,0001.23,0001.02
2022-10-27 12:57:00,,0822.2,5.00,0.00,25.8,24.2,00.0,34.6,27.8,17.9,0000.0,0001.79,0001.23,0001.01
2022-10-27 12:58:00,,0822.2,5.01,0.00,25.8,24.2,00.0,34.6,27.8,17.9,0000.0,0001.76,0001.21,0001.00
2022-10-27 12:59:00,,0822.1,5.00,0.00,25.8,24.2,00.0,34.6,27.8,17.9,0000.0,0001.78,0001.22,0001.01
